[[{"header":{"parameterUnit":"m.s-1","parameterCategory":1,"la1":30.2991,"la2":30.254,"lo1":-89.0895,"lo2":-89.0444,"dy":0.0017,"dx":0.0017,"nx":28,"ny":28,"refTime":"2024-05-17T03:00:00:Z","depth":0,"parameterNumber":2,"parameterNumberName":"U-component_of_WINDS"},"data":[0,0,0,0,0,0,0,0,0,0,0,0,0,0,0,0,0,0,0,0,0,0,0,0,0,0,0,0,0,0,0,0,0,0,0,0,0,0,0,0,0,0,0,0,0,0,0,0,0,0,0,0,0,0,0,0,0,0,0.2274,0.2272,0,0.2097,0.2095,0.2093,0.2024,0.2025,0.2025,0.2026,0.1839,0.1834,0.1829,0,0,0,0,0,0,0,0,0,0,0,0,0,0.2546,0.2541,0.2274,0.2272,0.227,0.2097,0.2095,0.2092,0.2024,0.2025,0.2025,0.2026,0.1841,0.1835,0.1828,0,0,0,0,0,0,0,0,0,0,0,0,0,0.2404,0.254,0.2274,0.2215,0.2208,0.2098,0.2095,0.2092,0.2024,0.2025,0.2025,0.2026,0.1843,0.1835,0.1827,0.1762,0,0,0.1802,0.1799,0,0,0,0,0,0,0,0,0.2412,0.2394,0.2226,0.2219,0.2211,0.2084,0.2122,0.1981,0.2024,0.2094,0.2026,0.2027,0.192,0.1905,0.187,0.1753,0.1745,0.1802,0.1797,0.1793,0.1791,0,0,0,0,0,0,0,0.2422,0.2401,0.2204,0.2223,0.2214,0.2195,0.2175,0.2095,0.2004,0.2088,0.2082,0.2062,0.1916,0.1878,0.1865,0.1743,0.1802,0.1795,0.179,0.1787,0.1558,0.1557,0,0,0,0,0,0,0.2443,0.241,0.2209,0.2198,0.2315,0.2189,0.2168,0.2123,0.2005,0.1988,0.2062,0.206,0.1892,0.1875,0.1859,0.1771,0.1793,0.1786,0.1781,0.156,0.1558,0.1557,0,0,0,0,0,0,0.2449,0.2425,0.2217,0.2303,0.2275,0.2184,0.2135,0.212,0.2082,0.1986,0.1969,0.2041,0.1892,0.187,0.1786,0.1764,0.1782,0.1775,0.1561,0.1559,0.1558,0.1599,0,0,0,0,0,0,0.2457,0.2428,0.2404,0.2303,0.227,0.2149,0.2133,0.2116,0.2069,0.2065,0.1962,0.1945,0.1891,0.1798,0.1778,0.1753,0.1768,0.1562,0.156,0.1558,0.1599,0.1598,0.1598,0,0,0,0,0,0.2467,0.2423,0.2403,0.238,0.2239,0.2148,0.2129,0.2069,0.2068,0.2041,0.1979,0.1948,0.177,0.179,0.1767,0.1739,0.1564,0.1561,0.1558,0.1599,0.1598,0.1598,0,0,0,0,0,0,0.2523,0.2408,0.2386,0.2308,0.2238,0.2137,0.2102,0.2071,0.2,0.1998,0.1925,0.1902,0.1823,0.1773,0.1797,0.1667,0.1664,0.1657,0.1703,0.1702,0.1702,0.1715,0.1762,0,0,0,0,0,0.2527,0.2464,0.2367,0.2307,0.2274,0.2194,0.2152,0.2112,0.2036,0.2006,0.1937,0.1864,0.179,0.1744,0.1671,0.1591,0.1566,0.156,0.156,0.156,0.1554,0.1504,0.1499,0.1548,0.1548,0.1548,0,0,0.2533,0.2462,0.2428,0.2317,0.2258,0.2193,0.217,0.2103,0.2052,0.1995,0.1911,0.1858,0.177,0.1687,0.1647,0.1643,0.1535,0.1557,0.1558,0.1551,0.1501,0.1496,0.1492,0.1546,0.1547,0.1547,0,0,0.251,0.2453,0.2395,0.2336,0.2248,0.2195,0.2181,0.2084,0.2046,0.1961,0.1916,0.1854,0.1731,0.1669,0.1621,0.1573,0.154,0.1551,0.1549,0.1501,0.1497,0.1493,0.1472,0.1466,0.1545,0.1545,0.1546,0,0.2529,0.2431,0.2369,0.2303,0.2254,0.22,0.2139,0.2085,0.1977,0.1943,0.1941,0.1782,0.172,0.1619,0.1607,0.1572,0.1551,0.1562,0.1503,0.1498,0.1494,0.1473,0.1466,0.1547,0.1547,0.1547,0.1547,0,0.2456,0.2388,0.2352,0.225,0.2197,0.2134,0.206,0.2013,0.1977,0.1923,0.1835,0.1757,0.1667,0.164,0.1604,0.1533,0.1533,0.1518,0.1513,0.1492,0.1471,0.1463,0.155,0.1549,0.1548,0.1548,0,0,0.2465,0.2328,0.2316,0.2267,0.2164,0.2109,0.2042,0.1955,0.1915,0.1841,0.1781,0.1676,0.166,0.1607,0.1562,0.1521,0.1482,0.1509,0.1506,0.1504,0.1395,0.1406,0.1398,0.1461,0.1459,0.1458,0.1401,0,0.2427,0.2308,0.2248,0.2153,0.2087,0.2034,0.1974,0.1904,0.1851,0.1785,0.1726,0.1652,0.1639,0.1605,0.1562,0.1496,0.1459,0.15,0.14,0.1398,0.1422,0.1388,0.1399,0.135,0.1393,0.1392,0.1391,0,0.2368,0.2295,0.2193,0.2095,0.2065,0.2014,0.1927,0.1866,0.1783,0.1747,0.1686,0.1642,0.1566,0.1567,0.1459,0.1488,0.1444,0.1405,0.1402,0.1388,0.1392,0.1371,0.1333,0.1325,0.1378,0.1379,0.138,0,0.2381,0.2258,0.218,0.214,0.2025,0.1989,0.1939,0.1856,0.1806,0.1729,0.1695,0.1611,0.1563,0.1497,0.143,0.1438,0.1327,0.1324,0.1292,0.1293,0.127,0.1272,0.1222,0.1246,0.1246,0.1246,0.1246,0,0.2344,0.2283,0.2184,0.2136,0.2065,0.1996,0.1926,0.1872,0.1798,0.1736,0.1684,0.1627,0.1543,0.1474,0.1421,0.1337,0.1317,0.1283,0.1269,0.1286,0.129,0.1255,0.1255,0.1244,0.1244,0.1245,0.1245,0,0.2347,0.2279,0.219,0.2087,0.2059,0.2011,0.1922,0.1871,0.1815,0.1737,0.1714,0.1626,0.1541,0.1468,0.1356,0.132,0.1233,0.1218,0.1261,0.1253,0.1224,0.1227,0.1148,0.1133,0.117,0.117,0.117,0,0.2328,0.2279,0.2171,0.2126,0.2077,0.2006,0.1954,0.1883,0.1831,0.173,0.1691,0.1603,0.1528,0.1395,0.1318,0.1231,0.1212,0.119,0.1198,0.1216,0.1207,0.121,0.1203,0.119,0.1189,0.1189,0.1189,0,0.2298,0.2266,0.2195,0.211,0.205,0.198,0.1908,0.1873,0.1788,0.1732,0.1645,0.1587,0.1472,0.1384,0.1288,0.1233,0.1195,0.1188,0.1175,0.1191,0.1217,0.1199,0.1258,0.1189,0.1189,0.1189,0.1189,0.1189,0.2287,0.224,0.2156,0.2077,0.2015,0.1948,0.1895,0.1831,0.1759,0.166,0.1622,0.1533,0.1446,0.1313,0.1258,0.1184,0.1178,0.1161,0.1156,0.1152,0.1153,0.1231,0.1167,0.1167,0.1167,0.1167,0.1167,0,0.2253,0.2196,0.2124,0.2024,0.1961,0.1933,0.1851,0.1799,0.1721,0.1644,0.1572,0.1469,0.1382,0.1299,0.1206,0.1163,0.1143,0.1141,0.1142,0.1129,0.1166,0.1184,0.1158,0.1158,0.1158,0.1158,0.1159,0.1159,0.2228,0.2146,0.2103,0.1988,0.193,0.1843,0.1798,0.1734,0.1672,0.1561,0.1489,0.1435,0.1354,0.1255,0.1172,0.1149,0.1116,0.1118,0.109,0.1126,0.1127,0.1129,0.1146,0.1112,0.1112,0.1059,0.1059,0.1059]},{"header":{"parameterUnit":"m.s-1","parameterCategory":1,"la1":30.2991,"la2":30.254,"lo1":-89.0895,"lo2":-89.0444,"dy":0.0017,"dx":0.0017,"nx":28,"ny":28,"refTime":"2024-05-17T03:00:00:Z","depth":0,"parameterNumber":3,"parameterNumberName":"V-component_of_WINDS"},"data":[0,0,0,0,0,0,0,0,0,0,0,0,0,0,0,0,0,0,0,0,0,0,0,0,0,0,0,0,0,0,0,0,0,0,0,0,0,0,0,0,0,0,0,0,0,0,0,0,0,0,0,0,0,0,0,0,0,0,2.0258,2.0258,0,2.0288,2.0289,2.0289,2.0309,2.0309,2.0309,2.0309,2.034,2.034,2.0341,0,0,0,0,0,0,0,0,0,0,0,0,0,2.0213,2.0214,2.0258,2.0258,2.0258,2.0288,2.0289,2.0289,2.0309,2.0309,2.0309,2.0309,2.0339,2.034,2.0341,0,0,0,0,0,0,0,0,0,0,0,0,0,2.0237,2.0214,2.0257,2.0272,2.0273,2.0288,2.0289,2.0289,2.0309,2.0309,2.0309,2.0309,2.0339,2.034,2.0341,2.0344,0,0,2.0345,2.0345,0,0,0,0,0,0,0,0,2.0236,2.0239,2.0269,2.0271,2.0272,2.0295,2.0284,2.0308,2.0309,2.0295,2.0309,2.0309,2.0325,2.0327,2.0332,2.0346,2.0347,2.0345,2.0345,2.0346,2.0346,0,0,0,0,0,0,0,2.0234,2.0237,2.027,2.027,2.0272,2.0276,2.0279,2.0289,2.0308,2.0296,2.0298,2.0301,2.0326,2.0331,2.0333,2.0348,2.0345,2.0346,2.0346,2.0347,2.0363,2.0363,0,0,0,0,0,0,2.023,2.0236,2.0269,2.0271,2.0254,2.0276,2.028,2.0288,2.0308,2.0312,2.0301,2.0302,2.0329,2.0332,2.0334,2.0338,2.0346,2.0347,2.0347,2.0364,2.0363,2.0363,0,0,0,0,0,0,2.0229,2.0233,2.0268,2.0254,2.0258,2.0277,2.0285,2.0288,2.0294,2.0312,2.0315,2.0303,2.033,2.0333,2.0341,2.034,2.0347,2.0348,2.0364,2.0364,2.0363,2.0347,0,0,0,0,0,0,2.0228,2.0233,2.0235,2.0254,2.0259,2.0275,2.0285,2.0289,2.0296,2.0297,2.0315,2.0318,2.033,2.034,2.0342,2.0341,2.0349,2.0364,2.0364,2.0363,2.0348,2.0346,2.0345,0,0,0,0,0,2.0226,2.0229,2.0235,2.0239,2.0262,2.0275,2.0278,2.0291,2.0295,2.0297,2.0309,2.0318,2.0339,2.034,2.0344,2.0343,2.0364,2.0364,2.0363,2.0348,2.0346,2.0345,0,0,0,0,0,0,2.021,2.0232,2.0238,2.0247,2.0259,2.0278,2.0281,2.0289,2.03,2.0301,2.0317,2.032,2.0327,2.0336,2.0337,2.0346,2.0353,2.0353,2.034,2.0338,2.0337,2.0334,2.035,0,0,0,0,0,2.0207,2.0216,2.0235,2.0241,2.0246,2.0262,2.0268,2.0277,2.029,2.0295,2.0307,2.0319,2.0328,2.0334,2.0343,2.0349,2.0352,2.035,2.0348,2.0347,2.0347,2.0349,2.0347,2.0362,2.0362,2.0362,0,0,2.0202,2.0215,2.022,2.0238,2.0248,2.0255,2.0266,2.0275,2.028,2.0296,2.0305,2.0314,2.0328,2.0334,2.0338,2.0342,2.0343,2.0346,2.0345,2.0346,2.0348,2.0347,2.0345,2.0361,2.0361,2.0362,0,0,2.0196,2.0207,2.0213,2.0222,2.0237,2.0248,2.0249,2.0266,2.0273,2.0282,2.0293,2.03,2.0316,2.0325,2.0331,2.0326,2.0335,2.0329,2.0321,2.0323,2.0322,2.0321,2.0318,2.0317,2.0329,2.0329,2.0329,0,2.0187,2.02,2.0215,2.0222,2.0229,2.0243,2.0248,2.0256,2.0274,2.0278,2.0282,2.0301,2.0311,2.0319,2.0318,2.0323,2.0324,2.0327,2.0321,2.032,2.0319,2.0317,2.0316,2.0328,2.0328,2.0328,2.0328,0,2.0188,2.0197,2.02,2.0215,2.0223,2.0229,2.0243,2.0248,2.0256,2.0266,2.0274,2.0286,2.0298,2.0301,2.0309,2.031,2.0311,2.0318,2.0325,2.0317,2.0315,2.0314,2.0327,2.0327,2.0327,2.0328,0,0,2.0174,2.0196,2.0197,2.0204,2.022,2.0227,2.0233,2.0244,2.0248,2.0258,2.0263,2.0275,2.0281,2.0288,2.0298,2.0299,2.0293,2.0305,2.0306,2.0302,2.0292,2.0287,2.0286,2.0298,2.0298,2.0298,2.0291,0,2.0171,2.0182,2.0194,2.0202,2.0209,2.0221,2.0226,2.0236,2.0245,2.0252,2.0261,2.0269,2.0277,2.0281,2.0283,2.0293,2.0291,2.0294,2.0302,2.0302,2.0298,2.0285,2.0279,2.0272,2.029,2.029,2.029,0,2.0168,2.0178,2.0185,2.0199,2.0203,2.0207,2.0217,2.0224,2.0235,2.0241,2.0248,2.0258,2.0263,2.027,2.0277,2.0279,2.0282,2.0288,2.0288,2.0289,2.0295,2.0284,2.027,2.0269,2.0289,2.0289,2.0289,0,2.0156,2.0171,2.0177,2.0182,2.0199,2.0201,2.0208,2.022,2.0225,2.0234,2.0237,2.0246,2.0251,2.0258,2.0269,2.0273,2.0274,2.0282,2.0279,2.0278,2.0278,2.0278,2.0264,2.0282,2.0282,2.0282,2.0282,0,2.015,2.0154,2.0171,2.0175,2.0179,2.0192,2.0196,2.0204,2.0213,2.0218,2.023,2.0234,2.0248,2.0254,2.0263,2.0266,2.0269,2.0273,2.0275,2.0272,2.0271,2.0274,2.0275,2.0282,2.0282,2.0282,2.0282,0,2.0138,2.0149,2.0157,2.0171,2.0175,2.0177,2.0189,2.0193,2.0201,2.0207,2.0209,2.0223,2.0229,2.0241,2.0252,2.0257,2.0259,2.0263,2.0255,2.0257,2.0252,2.0252,2.0239,2.0237,2.0257,2.0257,2.0257,0,2.0133,2.0136,2.0151,2.0155,2.0161,2.0167,2.0172,2.0185,2.0189,2.0201,2.0203,2.021,2.0217,2.0227,2.0237,2.0245,2.0249,2.0244,2.025,2.0246,2.0248,2.0247,2.0247,2.0242,2.0242,2.0242,2.0241,0,2.0124,2.0129,2.0136,2.0144,2.015,2.0157,2.0165,2.0167,2.0181,2.0185,2.0192,2.0197,2.0207,2.0214,2.0223,2.0229,2.0237,2.0239,2.0239,2.0235,2.023,2.0231,2.025,2.0239,2.024,2.024,2.024,2.024,2.0115,2.0117,2.0127,2.0134,2.0141,2.0147,2.0151,2.0159,2.0165,2.0174,2.0181,2.0186,2.0195,2.0208,2.0213,2.0218,2.0222,2.0221,2.0221,2.022,2.0218,2.0229,2.0219,2.022,2.022,2.022,2.022,0,2.0105,2.0111,2.0117,2.0127,2.0132,2.0139,2.0147,2.0151,2.0156,2.0163,2.0169,2.0176,2.0182,2.0192,2.0199,2.02,2.0204,2.0202,2.0201,2.0202,2.0215,2.0214,2.0198,2.0198,2.0198,2.0198,2.0198,2.0198,2.0101,2.0105,2.011,2.0117,2.0124,2.013,2.0134,2.0139,2.0145,2.0152,2.0157,2.0163,2.0171,2.0179,2.0184,2.0187,2.0188,2.0185,2.0188,2.02,2.0202,2.0204,2.0203,2.0185,2.0185,2.0175,2.0175,2.0175]}]]